Cincinnati, OH

6:23 PM EDT on March 29, 2017 (GMT -0400)
Cincinnati Municipal-Lunken

Weather History for KLUK - May, 2013

Change the Weather History Date:

Friday, May 31, 2013

  Actual Average Record
Temperature  
Mean Temperature 73 °F -  
Max Temperature 82 °F 78 °F 93 °F (1988)
Min Temperature 64 °F 58 °F 41 °F (1961)
Cooling Degree Days 8    
Growing Degree Days 23 (Base 50)    
Moisture  
Dew Point 67 °F    
Average Humidity 87    
Maximum Humidity 100    
Minimum Humidity 62    
Precipitation  
Precipitation 0.73 in - - ()
Sea Level Pressure  
Sea Level Pressure 30.02 in    
Wind  
Wind Speed 6 mph (SSW)    
Max Wind Speed 20 mph    
Max Gust Speed 40 mph    
Visibility 8 miles    
Events Rain , Thunderstorm    
Averages and records for this station are not official NWS values.
T = Trace of Precipitation, MM = Missing Value Source: NWS Daily Summary

Daily Weather History Graph

Daily Weather History Graph

Search for Another Location

Airport or City:

Trip Planner

Search our weather history database for the weather conditions in past years. The results will help you decide how hot, cold, wet, or windy it might be!

Date:

Astronomy

May. 31, 2013 Rise Set
Actual Time 6:13 AM EDT 8:57 PM EDT
Civil Twilight 5:42 AM EDT 9:28 PM EDT
Nautical Twilight 5:03 AM EDT 10:08 PM EDT
Astronomical Twilight 4:18 AM EDT 10:52 PM EDT
Moon 1:33 AM EDT (5/31) 1:25 PM EDT (5/31)
Length of Visible Light 15h 46m
Length of Day
14h 43m
Waning Gibbous, 51% of the Moon is Illuminated
May 31
Waning Gibbous
May 31
Last Quarter
Jun 8
New
Jun 16
First Quarter
Jun 23
Full

Hourly Weather History & Observations

Time (EDT) Temp. Heat Index Dew Point Humidity Pressure Visibility Wind Dir Wind Speed Gust Speed Precip Events Conditions
12:53 AM 70.0 °F - 64.9 °F 84% 30.07 in 10.0 mi SW 3.5 mph - N/A   Clear
1:53 AM 71.1 °F - 64.0 °F 78% 30.06 in 10.0 mi Calm Calm - N/A   Clear
2:53 AM 68.0 °F - 64.0 °F 87% 30.06 in 10.0 mi SW 3.5 mph - N/A   Clear
3:53 AM 66.0 °F - 64.0 °F 93% 30.05 in 10.0 mi Calm Calm - N/A   Clear
4:53 AM 64.9 °F - 64.0 °F 97% 30.04 in 10.0 mi Calm Calm - N/A   Clear
5:53 AM 64.9 °F - 63.0 °F 93% 30.04 in 10.0 mi SSW 3.5 mph - N/A   Scattered Clouds
6:53 AM 68.0 °F - 64.0 °F 87% 30.05 in 10.0 mi South 6.9 mph - N/A   Mostly Cloudy
7:53 AM 71.1 °F - 64.9 °F 81% 30.06 in 10.0 mi South 5.8 mph - N/A   Mostly Cloudy
8:53 AM 73.9 °F - 64.9 °F 73% 30.06 in 10.0 mi South 10.4 mph - N/A   Partly Cloudy
9:53 AM 77.0 °F - 66.0 °F 69% 30.06 in 10.0 mi South 8.1 mph - N/A   Partly Cloudy
10:53 AM 78.1 °F - 64.9 °F 64% 30.04 in 10.0 mi SSW 16.1 mph 24.2 mph N/A   Mostly Cloudy
11:53 AM 82.0 °F 84.9 °F 68.0 °F 62% 30.03 in 10.0 mi South 15.0 mph - N/A   Partly Cloudy
12:53 PM 79.0 °F - 68.0 °F 69% 30.02 in 10.0 mi SSW 10.4 mph - 0.00 in Rain Light Rain
1:53 PM 81.0 °F 83.8 °F 68.0 °F 65% 30.00 in 10.0 mi SSW 12.7 mph 19.6 mph 0.00 in   Overcast
2:53 PM 79.0 °F - 68.0 °F 69% 29.99 in 5.0 mi SW 19.6 mph 27.6 mph 0.00 in Rain Light Rain
3:12 PM 68.0 °F - 66.2 °F 94% 30.03 in 5.0 mi SW 18.4 mph 40.3 mph 0.37 in Rain , Thunderstorm Thunderstorms and Rain
3:53 PM 68.0 °F - 68.0 °F 100% 30.01 in 6.0 mi Calm Calm - 0.49 in Rain Light Rain
4:53 PM 71.1 °F - 70.0 °F 96% 29.98 in 10.0 mi Calm Calm - 0.00 in Rain Light Rain
4:58 PM 71.6 °F - 69.8 °F 94% 30.00 in 1.8 mi Variable 6.9 mph - 0.06 in Rain Light Rain
5:06 PM 71.6 °F - 69.8 °F 94% 30.01 in 2.5 mi SSW 4.6 mph - 0.11 in Rain Light Rain
5:12 PM 69.8 °F - 69.8 °F 100% 30.01 in 2.0 mi South 6.9 mph - 0.17 in Rain , Thunderstorm Heavy Thunderstorms and Rain
5:19 PM 71.6 °F - 69.8 °F 94% 30.00 in 2.0 mi South 12.7 mph - 0.18 in Rain , Thunderstorm Thunderstorms and Rain
5:26 PM 69.8 °F - 68.0 °F 94% 30.00 in 3.0 mi SSW 11.5 mph - 0.18 in Rain , Thunderstorm Light Thunderstorms and Rain
5:53 PM 70.0 °F - 69.1 °F 97% 30.00 in 10.0 mi SSW 13.8 mph - 0.24 in Rain Light Rain
6:53 PM 70.0 °F - 69.1 °F 97% 29.99 in 6.0 mi South 10.4 mph - 0.00 in Rain Light Rain
7:53 PM 72.0 °F - 71.1 °F 97% 29.98 in 10.0 mi South 3.5 mph - 0.00 in   Scattered Clouds
8:53 PM 70.0 °F - 69.1 °F 97% 29.96 in 10.0 mi South 6.9 mph - N/A   Clear
9:53 PM 69.1 °F - 68.0 °F 96% 29.96 in 10.0 mi SSW 5.8 mph - N/A   Clear
10:53 PM 68.0 °F - 68.0 °F 100% 29.97 in 10.0 mi SSW 4.6 mph - N/A   Partly Cloudy
11:53 PM 68.0 °F - 66.9 °F 96% 29.98 in 10.0 mi Calm Calm - N/A   Mostly Cloudy